Location: Newark
(45.8667°N, 9.7333°E)
Time: 07:38:29
(UTC+00:00)

Tiros 1 despin weight - Visible Passes

Search period start: 22 January 2020 00:00
Search period end: 01 February 2020 00:00
Orbit: 594 x 643 km, 48.2° (Epoch: 21 January)

Date Brightness Start Highest point End Pass type
(mag) Time Alt. Az. Time Alt. Az. Time Alt. Az.
22 Jan ? 17:18:22 10° WNW 17:22:49 44° SSW 17:27:15 10° SE visible
22 Jan ? 19:02:41 10° WSW 19:03:31 10° SW 19:04:21 10° SW visible
23 Jan ? 17:35:14 10° W 17:39:08 27° SW 17:43:02 10° SSE visible
24 Jan ? 17:52:38 10° W 17:55:20 15° SW 17:58:02 10° S visible
26 Jan ? 16:43:36 10° W 16:47:06 21° SW 16:50:37 10° S visible
27 Jan ? 17:01:40 10° WSW 17:03:15 12° SW 17:04:51 10° SSW visible
